Terminal Aerodrome Forecast
Issued by NWS

Home | Current Version | Previous Version | Text Only | Print | Product List | Glossary On
Versions: 1 2 3 4 5 6 7 8 9 10 11 12 13 14 15
000
FTUS44 KMAF 302300
TAFFST
TAF
KFST 302328Z 3100/3124 22010KT P6SM SCT100 BKN200
      TEMPO 3100/3104 VRB20G45KT 5SM TSRA BKN080CB
     FM310600 05011KT P6SM BKN100=

USA.gov is the U.S. government's official web portal to all federal, state and local government web resources and services.